Погода в Дубровках

Россия / Пензенская область     53°49′27″N   43°18′00″E
темп.,
°C
ветер,
м/с
пор.,
м/с
влажн.,
%
обл.,
%
осадки,
мм/ч
давл.,
гПа
погр.,
м
22 мая, вс
вс2200:00+5вюв226971 0.0 100616
03:00+4вюв1168100 0.0 100512
06:00+5св5679100 0.0 1002189
09:00+8всв5672100 0.0 1001658
12:00+11св546289 0.1 10001450
15:00+10св5564100 0.2 10001045
18:00+10св466895 0.0 999844
21:00+5ссв611755 0.0 1001368
23 мая, пн
пн2300:00+2ссв49795 0.0 1002290
03:000с37855 0.0 1002167
06:00+1ссз47715 0.0 1003364
09:00+5ссз565798 0.0 10031401
12:00+6сз6657100 0.1 10031517
15:00+6зсз6759100 0.1 10041623
18:00+7зсз3765100 0.0 10041224
21:00+4юз4979100 0.0 1004183
24 мая, вт
вт2400:00+3юз51184100 0.0 1004229
03:00+2зюз51091100 0.0 1004201
06:00+5з61276100 0.0 1004495
09:00+8зсз5851100 0.0 10041183
12:00+6ссз6676100 0.2 1006767
15:00+6з468483 0.8 1007721
18:00+6зсз357494 0.5 1008675
21:00+4ссз3586100 0.6 1010103
25 мая, ср
ср2500:00+1ссз34925 0.0 101166
03:000сз33915 0.0 101359
06:00+2сз35815 0.0 1014216
09:00+7сз456345 0.0 10141235
12:00+7сз4557100 0.1 10141331
15:00+8сз456077 0.3 10151322
18:00+8зсз456445 0.1 1016961
21:00+4з36785 0.1 101679
26 мая, чт
чт2600:00+3зюз488197 0.0 1016162
03:00+2зюз378562 0.0 1016128
06:00+4зюз477887 0.0 1015205
09:00+9юз566460 0.0 1013773
12:00+12юз786799 0.0 10111225
15:00+16зюз586756 0.1 10081264
18:00+12зюз71492100 1.9 1006648
21:00+11ююз41194100 2.9 1004352